Location: Stara Lesna
(49.1528°N, 20.2911°E)
Time: 19:00:29
(UTC+02:00)

Cosmos 2369 Rocket - Pass Details

Date: 13 July 2020
Orbit: 830 x 852 km, 71.0° (Epoch: 10 August)

Event Time Altitude Azimuth Distance (km) Brightness Sun altitude
Rises 01:35:30 0° 314° (NW) 3,385 5.8 -18.2°
Reaches altitude 10° 01:40:09 10° 279° (W) 2,447 4.6 -18.0°
Maximum altitude 01:41:25 11° 266° (W) 2,392 4.4 -17.9°
Drops below altitude 10° 01:42:41 10° 252° (WSW) 2,446 4.3 -17.9°
Enters shadow 01:42:48 10° 251° (WSW) 2,456 4.3 -17.9°
